Time,TemperatureF,DewpointF,PressureIn,WindDirection,WindDirectionDegrees,WindSpeedMPH,WindSpeedGustMPH,Humidity,HourlyPrecipIn,Conditions,Clouds,dailyrainin,SoftwareType,DateUTC
2013-04-06 00:00:00,31.3,17.8,29.23,SE,126,0.0,4.0,57,0.00,,,0.00,VWS V14.00,2013-04-06 04:00:00,
2013-04-06 00:05:00,31.3,17.8,29.23,SE,126,0.0,0.0,57,0.00,,,0.00,VWS V14.00,2013-04-06 04:05:00,
2013-04-06 00:10:00,31.1,18.1,29.23,SE,126,2.2,4.9,58,0.00,,,0.00,VWS V14.00,2013-04-06 04:10:00,
2013-04-06 00:15:00,30.9,18.3,29.23,SE,126,0.0,4.9,59,0.00,,,0.00,VWS V14.00,2013-04-06 04:15:00,
2013-04-06 00:20:00,30.6,18.0,29.23,SE,126,0.0,4.9,59,0.00,,,0.00,VWS V14.00,2013-04-06 04:20:00,
2013-04-06 00:26:00,30.6,18.0,29.23,SE,126,0.0,4.9,59,0.00,,,0.00,VWS V14.00,2013-04-06 04:26:00,
2013-04-06 00:30:00,30.4,17.8,29.23,SE,126,0.0,0.0,59,0.00,,,0.00,VWS V14.00,2013-04-06 04:30:00,
2013-04-06 00:36:00,30.2,18.0,29.23,SE,126,0.0,0.0,60,0.00,,,0.00,VWS V14.00,2013-04-06 04:36:00,
2013-04-06 00:41:00,30.2,18.4,29.23,SE,126,0.0,0.0,61,0.00,,,0.00,VWS V14.00,2013-04-06 04:41:00,
2013-04-06 00:46:00,30.0,18.2,29.23,SE,126,0.0,0.0,61,0.00,,,0.00,VWS V14.00,2013-04-06 04:46:00,
2013-04-06 00:51:00,30.0,18.2,29.23,SE,126,0.0,0.0,61,0.00,,,0.00,VWS V14.00,2013-04-06 04:51:00,
2013-04-06 00:56:00,29.7,17.9,29.23,SE,126,0.0,0.0,61,0.00,,,0.00,VWS V14.00,2013-04-06 04:56:00,
2013-04-06 01:01:00,29.5,17.7,29.23,SE,126,0.0,0.0,61,0.00,,,0.00,VWS V14.00,2013-04-06 05:01:00,
2013-04-06 01:06:00,29.5,18.1,29.23,SE,126,0.0,0.0,62,0.00,,,0.00,VWS V14.00,2013-04-06 05:06:00,
2013-04-06 01:13:00,29.3,17.9,29.23,SE,126,0.0,2.2,62,0.00,,,0.00,VWS V14.00,2013-04-06 05:13:00,
2013-04-06 01:18:00,29.3,18.3,29.23,SE,126,0.0,2.2,63,0.00,,,0.00,VWS V14.00,2013-04-06 05:18:00,
2013-04-06 01:23:00,29.3,18.3,29.23,SE,126,0.0,2.2,63,0.00,,,0.00,VWS V14.00,2013-04-06 05:23:00,
2013-04-06 01:28:00,29.1,18.5,29.23,SE,126,0.0,2.2,64,0.00,,,0.00,VWS V14.00,2013-04-06 05:28:00,
2013-04-06 01:33:00,29.1,18.5,29.23,SE,127,0.0,0.0,64,0.00,,,0.00,VWS V14.00,2013-04-06 05:33:00,
2013-04-06 01:38:00,29.1,18.8,29.23,SE,127,0.0,0.0,65,0.00,,,0.00,VWS V14.00,2013-04-06 05:38:00,
2013-04-06 01:43:00,28.9,18.7,29.23,SE,127,0.0,0.0,65,0.00,,,0.00,VWS V14.00,2013-04-06 05:43:00,
2013-04-06 01:48:00,28.8,18.5,29.23,SE,127,0.0,0.0,65,0.00,,,0.00,VWS V14.00,2013-04-06 05:48:00,
2013-04-06 01:53:00,28.6,18.3,29.23,SE,127,0.0,0.0,65,0.00,,,0.00,VWS V14.00,2013-04-06 05:53:00,
2013-04-06 01:58:00,28.6,18.7,29.23,SE,127,0.0,0.0,66,0.00,,,0.00,VWS V14.00,2013-04-06 05:58:00,
2013-04-06 02:03:00,28.6,18.7,29.23,SE,127,0.0,0.0,66,0.00,,,0.00,VWS V14.00,2013-04-06 06:03:00,
2013-04-06 02:08:00,28.6,19.0,29.23,SE,127,0.0,0.0,67,0.00,,,0.00,VWS V14.00,2013-04-06 06:08:00,
2013-04-06 02:13:00,28.6,19.4,29.23,SE,127,0.0,0.0,68,0.00,,,0.00,VWS V14.00,2013-04-06 06:13:00,
2013-04-06 02:18:00,28.4,19.2,29.23,SE,127,0.0,0.0,68,0.00,,,0.00,VWS V14.00,2013-04-06 06:18:00,
2013-04-06 02:23:00,28.2,19.0,29.23,SE,127,0.0,0.0,68,0.00,,,0.00,VWS V14.00,2013-04-06 06:23:00,
2013-04-06 02:28:00,27.9,18.7,29.23,SE,127,0.0,0.0,68,0.00,,,0.00,VWS V14.00,2013-04-06 06:28:00,
2013-04-06 02:33:00,27.7,18.5,29.23,SE,127,0.0,0.0,68,0.00,,,0.00,VWS V14.00,2013-04-06 06:33:00,
2013-04-06 02:38:00,27.9,19.0,29.23,SE,127,0.0,0.0,69,0.00,,,0.00,VWS V14.00,2013-04-06 06:38:00,
2013-04-06 02:43:00,27.9,19.0,29.23,SE,127,0.0,0.0,69,0.00,,,0.00,VWS V14.00,2013-04-06 06:43:00,
2013-04-06 02:48:00,27.7,18.9,29.23,SE,127,0.0,0.0,69,0.00,,,0.00,VWS V14.00,2013-04-06 06:48:00,
2013-04-06 02:53:00,27.5,18.7,29.23,SE,127,0.0,0.0,69,0.00,,,0.00,VWS V14.00,2013-04-06 06:53:00,
2013-04-06 02:58:00,27.5,19.0,29.23,SE,127,0.0,0.0,70,0.00,,,0.00,VWS V14.00,2013-04-06 06:58:00,
2013-04-06 03:03:00,27.7,19.2,29.23,SE,127,0.0,0.0,70,0.00,,,0.00,VWS V14.00,2013-04-06 07:03:00,
2013-04-06 03:08:00,27.7,19.5,29.23,SE,127,0.0,0.0,71,0.00,,,0.00,VWS V14.00,2013-04-06 07:08:00,
2013-04-06 03:13:00,27.9,19.7,29.23,SE,127,0.0,0.0,71,0.00,,,0.00,VWS V14.00,2013-04-06 07:13:00,
2013-04-06 03:18:00,28.0,19.9,29.23,SE,127,0.0,0.0,71,0.00,,,0.00,VWS V14.00,2013-04-06 07:18:00,
2013-04-06 03:23:00,28.2,20.0,29.23,SE,127,0.0,0.0,71,0.00,,,0.00,VWS V14.00,2013-04-06 07:23:00,
2013-04-06 03:28:00,28.4,20.2,29.23,SE,127,0.0,0.0,71,0.00,,,0.00,VWS V14.00,2013-04-06 07:28:00,
2013-04-06 03:33:00,28.4,19.9,29.23,SE,127,0.0,0.0,70,0.00,,,0.00,VWS V14.00,2013-04-06 07:33:00,
2013-04-06 03:38:00,28.6,20.0,29.23,SE,127,0.0,0.0,70,0.00,,,0.00,VWS V14.00,2013-04-06 07:38:00,
2013-04-06 03:43:00,28.6,20.0,29.23,SE,127,0.0,0.0,70,0.00,,,0.00,VWS V14.00,2013-04-06 07:43:00,
2013-04-06 03:48:00,28.9,20.4,29.23,SE,127,0.0,0.0,70,0.00,,,0.00,VWS V14.00,2013-04-06 07:48:00,
2013-04-06 03:53:00,29.1,20.6,29.23,SE,127,0.0,0.0,70,0.00,,,0.00,VWS V14.00,2013-04-06 07:53:00,
2013-04-06 03:58:00,29.1,20.2,29.23,SE,127,0.0,0.0,69,0.00,,,0.00,VWS V14.00,2013-04-06 07:58:00,
2013-04-06 04:03:00,29.3,20.1,29.23,SE,127,0.0,4.0,68,0.00,,,0.00,VWS V14.00,2013-04-06 08:03:00,
2013-04-06 04:09:00,29.5,19.9,29.23,SE,127,0.0,4.0,67,0.00,,,0.00,VWS V14.00,2013-04-06 08:09:00,
2013-04-06 04:14:00,29.5,19.5,29.23,East,101,0.0,4.0,66,0.00,,,0.00,VWS V14.00,2013-04-06 08:14:00,
2013-04-06 04:19:00,29.5,19.2,29.23,ESE,105,0.0,4.0,65,0.00,,,0.00,VWS V14.00,2013-04-06 08:19:00,
2013-04-06 04:24:00,29.7,19.0,29.23,ESE,115,0.0,4.0,64,0.00,,,0.00,VWS V14.00,2013-04-06 08:24:00,
2013-04-06 04:29:00,29.7,19.0,29.23,SSE,147,0.0,4.0,64,0.00,,,0.00,VWS V14.00,2013-04-06 08:29:00,
2013-04-06 04:34:00,29.8,18.8,29.23,SE,124,0.0,3.1,63,0.00,,,0.00,VWS V14.00,2013-04-06 08:34:00,
2013-04-06 04:39:00,29.8,18.4,29.23,SE,124,0.0,3.6,62,0.00,,,0.00,VWS V14.00,2013-04-06 08:39:00,
2013-04-06 04:44:00,29.8,18.0,29.23,SE,124,0.0,3.6,61,0.00,,,0.00,VWS V14.00,2013-04-06 08:44:00,
2013-04-06 04:49:00,29.8,17.7,29.23,ESE,123,0.0,3.6,60,0.00,,,0.00,VWS V14.00,2013-04-06 08:49:00,
2013-04-06 04:54:00,29.8,16.9,29.23,ESE,113,3.6,3.6,58,0.00,,,0.00,VWS V14.00,2013-04-06 08:54:00,
2013-04-06 04:59:00,29.7,16.3,29.23,ESE,119,0.0,3.6,57,0.00,,,0.00,VWS V14.00,2013-04-06 08:59:00,
2013-04-06 05:04:00,29.5,16.1,29.23,SE,128,4.0,4.0,57,0.00,,,0.00,VWS V14.00,2013-04-06 09:04:00,
2013-04-06 05:10:00,29.5,15.7,29.23,ESE,115,0.0,4.9,56,0.00,,,0.00,VWS V14.00,2013-04-06 09:10:00,
2013-04-06 05:15:00,29.5,15.7,29.23,SE,125,3.1,4.9,56,0.00,,,0.00,VWS V14.00,2013-04-06 09:15:00,
2013-04-06 05:20:00,29.7,15.9,29.23,East,89,0.0,4.9,56,0.00,,,0.00,VWS V14.00,2013-04-06 09:20:00,
2013-04-06 05:25:00,29.8,16.1,29.23,SE,135,3.1,4.9,56,0.00,,,0.00,VWS V14.00,2013-04-06 09:25:00,
2013-04-06 05:30:00,30.0,16.2,29.23,ESE,112,2.2,2.2,56,0.00,,,0.00,VWS V14.00,2013-04-06 09:30:00,
2013-04-06 05:35:00,30.0,15.8,29.23,ESE,113,0.0,2.2,55,0.00,,,0.00,VWS V14.00,2013-04-06 09:35:00,
2013-04-06 05:40:00,30.2,16.0,29.23,ESE,121,4.0,6.3,55,0.00,,,0.00,VWS V14.00,2013-04-06 09:40:00,
2013-04-06 05:45:00,30.2,16.0,29.23,ESE,104,0.0,6.3,55,0.00,,,0.00,VWS V14.00,2013-04-06 09:45:00,
2013-04-06 05:50:00,30.2,15.6,29.23,SE,124,5.4,7.2,54,0.00,,,0.00,VWS V14.00,2013-04-06 09:50:00,
2013-04-06 05:55:00,30.4,15.3,29.23,SSE,147,3.6,7.2,53,0.00,,,0.00,VWS V14.00,2013-04-06 09:55:00,
2013-04-06 06:00:00,30.4,14.9,29.23,ESE,120,5.4,5.8,52,0.00,,,0.00,VWS V14.00,2013-04-06 10:00:00,
2013-04-06 06:05:00,30.4,14.9,29.23,ESE,112,0.0,5.8,52,0.00,,,0.00,VWS V14.00,2013-04-06 10:05:00,
2013-04-06 06:10:00,30.4,14.9,29.23,East,95,3.6,5.8,52,0.00,,,0.00,VWS V14.00,2013-04-06 10:10:00,
2013-04-06 06:15:00,30.6,14.6,29.23,East,96,0.0,5.8,51,0.00,,,0.00,VWS V14.00,2013-04-06 10:15:00,
2013-04-06 06:20:00,30.6,14.6,29.23,SE,136,4.9,8.1,51,0.00,,,0.00,VWS V14.00,2013-04-06 10:20:00,
2013-04-06 06:25:00,30.7,14.8,29.23,SE,139,7.6,8.1,51,0.00,,,0.00,VWS V14.00,2013-04-06 10:25:00,
2013-04-06 06:30:00,30.7,14.3,29.23,ESE,108,3.6,5.4,50,0.00,,,0.00,VWS V14.00,2013-04-06 10:30:00,
2013-04-06 06:35:00,30.7,14.3,29.23,SE,132,3.1,7.6,50,0.00,,,0.00,VWS V14.00,2013-04-06 10:35:00,
2013-04-06 06:40:00,30.7,14.3,29.23,SE,125,5.4,8.1,50,0.00,,,0.00,VWS V14.00,2013-04-06 10:40:00,
2013-04-06 06:45:00,30.9,14.0,29.26,ESE,109,5.4,8.1,49,0.00,,,0.00,VWS V14.00,2013-04-06 10:45:00,
2013-04-06 06:50:00,30.9,14.0,29.26,SE,135,4.0,8.1,49,0.00,,,0.00,VWS V14.00,2013-04-06 10:50:00,
2013-04-06 06:55:00,30.9,14.0,29.26,ESE,105,3.6,8.1,49,0.00,,,0.00,VWS V14.00,2013-04-06 10:55:00,
2013-04-06 07:00:00,31.1,14.2,29.26,SE,129,4.9,5.8,49,0.00,,,0.00,VWS V14.00,2013-04-06 11:00:00,
2013-04-06 07:05:00,31.1,13.7,29.26,ESE,112,4.0,7.6,48,0.00,,,0.00,VWS V14.00,2013-04-06 11:05:00,
2013-04-06 07:10:00,31.1,13.7,29.26,ESE,123,0.0,7.6,48,0.00,,,0.00,VWS V14.00,2013-04-06 11:10:00,
2013-04-06 07:15:00,31.3,13.9,29.26,SSE,147,0.0,7.6,48,0.00,,,0.00,VWS V14.00,2013-04-06 11:15:00,
2013-04-06 07:20:00,31.3,13.9,29.26,SE,124,3.6,7.6,48,0.00,,,0.00,VWS V14.00,2013-04-06 11:20:00,
2013-04-06 07:25:00,31.5,13.6,29.26,SE,132,5.4,10.1,47,0.00,,,0.00,VWS V14.00,2013-04-06 11:25:00,
2013-04-06 07:31:00,31.5,13.6,29.26,SE,137,8.3,8.7,47,0.00,,,0.00,VWS V14.00,2013-04-06 11:31:00,
2013-04-06 07:33:00,31.6,13.7,29.26,SE,130,4.0,8.7,47,0.00,,,0.00,VWS V14.00,2013-04-06 11:33:00,
2013-04-06 07:38:00,31.6,13.2,29.26,SE,125,4.0,8.7,46,0.00,,,0.00,VWS V14.00,2013-04-06 11:38:00,
2013-04-06 07:43:00,31.8,13.4,29.26,SE,127,5.4,8.7,46,0.00,,,0.00,VWS V14.00,2013-04-06 11:43:00,
2013-04-06 07:48:00,32.0,13.6,29.26,ESE,107,4.0,8.7,46,0.00,,,0.00,VWS V14.00,2013-04-06 11:48:00,
2013-04-06 07:53:00,32.0,13.1,29.26,SE,139,4.0,8.7,45,0.00,,,0.00,VWS V14.00,2013-04-06 11:53:00,
2013-04-06 07:58:00,32.2,13.2,29.26,ESE,115,3.6,11.0,45,0.00,,,0.00,VWS V14.00,2013-04-06 11:58:00,
2013-04-06 08:03:00,32.2,13.2,29.26,SE,129,7.6,8.1,45,0.00,,,0.00,VWS V14.00,2013-04-06 12:03:00,
2013-04-06 08:08:00,32.4,13.4,29.26,SE,126,4.9,8.7,45,0.00,,,0.00,VWS V14.00,2013-04-06 12:08:00,
2013-04-06 08:13:00,32.4,13.9,29.26,ESE,123,4.0,8.7,46,0.00,,,0.00,VWS V14.00,2013-04-06 12:13:00,
2013-04-06 08:18:00,32.5,14.1,29.26,East,81,4.0,8.7,46,0.00,,,0.00,VWS V14.00,2013-04-06 12:18:00,
2013-04-06 08:23:00,32.7,14.2,29.26,SSE,150,3.6,8.7,46,0.00,,,0.00,VWS V14.00,2013-04-06 12:23:00,
2013-04-06 08:28:00,32.9,14.4,29.26,East,95,4.9,8.7,46,0.00,,,0.00,VWS V14.00,2013-04-06 12:28:00,
2013-04-06 08:33:00,33.3,14.7,29.26,SE,145,4.9,6.3,46,0.00,,,0.00,VWS V14.00,2013-04-06 12:33:00,
2013-04-06 08:38:00,33.3,14.7,29.26,ESE,113,5.4,11.9,46,0.00,,,0.00,VWS V14.00,2013-04-06 12:38:00,
2013-04-06 08:43:00,33.3,15.2,29.26,East,94,6.3,11.9,47,0.00,,,0.00,VWS V14.00,2013-04-06 12:43:00,
2013-04-06 08:48:00,33.3,15.2,29.26,ESE,116,5.4,11.9,47,0.00,,,0.00,VWS V14.00,2013-04-06 12:48:00,
2013-04-06 08:53:00,33.4,15.9,29.26,SE,130,5.4,11.9,48,0.00,,,0.00,VWS V14.00,2013-04-06 12:53:00,
2013-04-06 08:58:00,33.3,16.6,29.26,ESE,117,4.0,11.9,50,0.00,,,0.00,VWS V14.00,2013-04-06 12:58:00,
2013-04-06 09:03:00,33.4,16.8,29.26,SE,127,4.0,10.1,50,0.00,,,0.00,VWS V14.00,2013-04-06 13:03:00,
2013-04-06 09:08:00,33.4,17.3,29.26,SE,130,5.8,10.1,51,0.00,,,0.00,VWS V14.00,2013-04-06 13:08:00,
2013-04-06 09:13:00,33.4,17.7,29.26,SE,125,6.3,10.1,52,0.00,,,0.00,VWS V14.00,2013-04-06 13:13:00,
2013-04-06 09:18:00,33.4,17.7,29.26,SE,141,5.4,10.1,52,0.00,,,0.00,VWS V14.00,2013-04-06 13:18:00,
2013-04-06 09:23:00,33.6,17.9,29.26,SE,146,4.0,10.1,52,0.00,,,0.00,VWS V14.00,2013-04-06 13:23:00,
2013-04-06 09:29:00,33.6,18.3,29.26,ESE,105,5.8,10.1,53,0.00,,,0.00,VWS V14.00,2013-04-06 13:29:00,
2013-04-06 09:34:00,33.8,18.5,29.26,South,187,3.6,6.3,53,0.00,,,0.00,VWS V14.00,2013-04-06 13:34:00,
2013-04-06 09:39:00,33.8,18.5,29.26,SE,139,5.4,8.1,53,0.00,,,0.00,VWS V14.00,2013-04-06 13:39:00,
2013-04-06 09:44:00,33.8,18.5,29.23,SSE,154,4.9,8.1,53,0.00,,,0.00,VWS V14.00,2013-04-06 13:44:00,
2013-04-06 09:49:00,33.8,18.5,29.23,SSE,168,6.3,11.0,53,0.00,,,0.00,VWS V14.00,2013-04-06 13:49:00,
2013-04-06 09:54:00,34.0,18.7,29.23,SE,139,5.8,12.3,53,0.00,,,0.00,VWS V14.00,2013-04-06 13:54:00,
2013-04-06 09:59:00,34.3,19.0,29.23,ESE,119,8.3,12.3,53,0.00,,,0.00,VWS V14.00,2013-04-06 13:59:00,
2013-04-06 10:04:00,34.9,19.1,29.23,ESE,102,4.0,11.0,52,0.00,,,0.00,VWS V14.00,2013-04-06 14:04:00,
2013-04-06 10:09:00,35.2,19.4,29.23,SE,127,3.1,11.0,52,0.00,,,0.00,VWS V14.00,2013-04-06 14:09:00,
2013-04-06 10:14:00,36.0,20.1,29.23,SE,132,4.0,11.0,52,0.00,,,0.00,VWS V14.00,2013-04-06 14:14:00,
2013-04-06 10:19:00,36.5,20.1,29.23,ESE,111,2.7,13.2,51,0.00,,,0.00,VWS V14.00,2013-04-06 14:19:00,
2013-04-06 10:24:00,36.7,19.8,29.23,SSW,194,4.0,13.2,50,0.00,,,0.00,VWS V14.00,2013-04-06 14:24:00,
2013-04-06 10:29:00,37.2,20.3,29.23,SE,140,5.8,13.2,50,0.00,,,0.00,VWS V14.00,2013-04-06 14:29:00,
2013-04-06 10:34:00,37.6,19.7,29.23,East,94,10.1,14.5,48,0.00,,,0.00,VWS V14.00,2013-04-06 14:34:00,
2013-04-06 10:40:00,37.6,19.2,29.23,South,181,8.3,14.5,47,0.00,,,0.00,VWS V14.00,2013-04-06 14:40:00,
2013-04-06 10:45:00,38.3,19.9,29.23,East,96,13.2,14.5,47,0.00,,,0.00,VWS V14.00,2013-04-06 14:45:00,
2013-04-06 10:50:00,38.8,19.8,29.23,South,188,10.1,14.5,46,0.00,,,0.00,VWS V14.00,2013-04-06 14:50:00,
2013-04-06 10:55:00,38.7,19.7,29.23,SE,146,15.0,15.0,46,0.00,,,0.00,VWS V14.00,2013-04-06 14:55:00,
2013-04-06 11:00:00,38.7,19.2,29.23,ESE,108,12.8,15.0,45,0.00,,,0.00,VWS V14.00,2013-04-06 15:00:00,
2013-04-06 11:05:00,38.7,19.2,29.23,SE,141,15.0,15.0,45,0.00,,,0.00,VWS V14.00,2013-04-06 15:05:00,
2013-04-06 11:10:00,39.2,19.1,29.23,SE,130,12.3,15.0,44,0.00,,,0.00,VWS V14.00,2013-04-06 15:10:00,
2013-04-06 11:15:00,39.6,19.5,29.23,ESE,121,6.3,15.4,44,0.00,,,0.00,VWS V14.00,2013-04-06 15:15:00,
2013-04-06 11:20:00,40.3,20.1,29.23,SE,145,6.3,15.4,44,0.00,,,0.00,VWS V14.00,2013-04-06 15:20:00,
2013-04-06 11:25:00,40.3,20.1,29.23,ESE,118,8.7,15.4,44,0.00,,,0.00,VWS V14.00,2013-04-06 15:25:00,
2013-04-06 11:30:00,40.3,19.6,29.23,South,182,5.4,15.4,43,0.00,,,0.00,VWS V14.00,2013-04-06 15:30:00,
2013-04-06 11:35:00,40.3,19.6,29.23,South,176,8.3,13.2,43,0.00,,,0.00,VWS V14.00,2013-04-06 15:35:00,
2013-04-06 11:40:00,40.5,19.7,29.23,SE,146,6.3,13.2,43,0.00,,,0.00,VWS V14.00,2013-04-06 15:40:00,
2013-04-06 11:45:00,41.2,20.4,29.21,SSE,159,6.3,13.2,43,0.00,,,0.00,VWS V14.00,2013-04-06 15:45:00,
2013-04-06 11:50:00,41.2,20.4,29.21,ESE,123,8.3,13.2,43,0.00,,,0.00,VWS V14.00,2013-04-06 15:50:00,
2013-04-06 11:55:00,41.9,20.5,29.21,ESE,122,10.1,13.2,42,0.00,,,0.00,VWS V14.00,2013-04-06 15:55:00,
2013-04-06 12:00:00,41.7,19.8,29.21,ESE,118,6.7,6.7,41,0.00,,,0.00,VWS V14.00,2013-04-06 16:00:00,
2013-04-06 12:05:00,42.8,20.8,29.21,SSE,157,7.6,10.1,41,0.00,,,0.00,VWS V14.00,2013-04-06 16:05:00,
2013-04-06 12:10:00,43.0,20.3,29.21,ESE,106,6.3,12.8,40,0.00,,,0.00,VWS V14.00,2013-04-06 16:10:00,
2013-04-06 12:15:00,42.8,20.2,29.21,SSE,162,10.1,12.8,40,0.00,,,0.00,VWS V14.00,2013-04-06 16:15:00,
2013-04-06 12:20:00,43.5,20.8,29.21,ESE,111,4.0,12.8,40,0.00,,,0.00,VWS V14.00,2013-04-06 16:20:00,
2013-04-06 12:25:00,43.2,19.9,29.21,SSE,164,8.3,13.2,39,0.00,,,0.00,VWS V14.00,2013-04-06 16:25:00,
2013-04-06 12:30:00,43.3,20.1,29.21,SE,129,8.7,10.1,39,0.00,,,0.00,VWS V14.00,2013-04-06 16:30:00,
2013-04-06 12:35:00,43.5,20.2,29.21,SSE,165,5.4,10.5,39,0.00,,,0.00,VWS V14.00,2013-04-06 16:35:00,
2013-04-06 12:40:00,43.7,20.4,29.21,SSE,156,14.5,14.5,39,0.00,,,0.00,VWS V14.00,2013-04-06 16:40:00,
2013-04-06 12:45:00,43.3,19.5,29.18,South,185,8.3,15.0,38,0.00,,,0.00,VWS V14.00,2013-04-06 16:45:00,
2013-04-06 12:50:00,44.4,21.0,29.18,SSW,200,4.9,15.0,39,0.00,,,0.00,VWS V14.00,2013-04-06 16:50:00,
2013-04-06 12:55:00,44.8,20.7,29.18,SSE,155,12.3,15.0,38,0.00,,,0.00,VWS V14.00,2013-04-06 16:55:00,
2013-04-06 13:00:00,45.1,21.1,29.18,SE,129,8.7,10.5,38,0.00,,,0.00,VWS V14.00,2013-04-06 17:00:00,
2013-04-06 13:05:00,45.9,21.7,29.18,SSE,162,8.7,12.3,38,0.00,,,0.00,VWS V14.00,2013-04-06 17:05:00,
2013-04-06 13:10:00,45.9,21.7,29.18,South,180,6.3,15.0,38,0.00,,,0.00,VWS V14.00,2013-04-06 17:10:00,
2013-04-06 13:15:00,46.6,21.7,29.18,ESE,123,4.0,15.0,37,0.00,,,0.00,VWS V14.00,2013-04-06 17:15:00,
2013-04-06 13:20:00,46.0,21.2,29.18,South,184,5.8,15.0,37,0.00,,,0.00,VWS V14.00,2013-04-06 17:20:00,
2013-04-06 13:25:00,46.0,21.9,29.18,SSE,158,10.1,15.0,38,0.00,,,0.00,VWS V14.00,2013-04-06 17:25:00,
2013-04-06 13:30:00,45.9,21.7,29.18,SE,128,8.3,10.5,38,0.00,,,0.00,VWS V14.00,2013-04-06 17:30:00,
2013-04-06 13:35:00,46.0,21.9,29.18,ESE,117,6.3,10.5,38,0.00,,,0.00,VWS V14.00,2013-04-06 17:35:00,
2013-04-06 13:40:00,46.0,21.9,29.18,ESE,114,7.6,10.5,38,0.00,,,0.00,VWS V14.00,2013-04-06 17:40:00,
2013-04-06 13:45:00,46.2,21.4,29.15,South,178,5.4,17.4,37,0.00,,,0.00,VWS V14.00,2013-04-06 17:45:00,
2013-04-06 13:51:00,46.6,21.7,29.15,SSE,149,5.8,17.4,37,0.00,,,0.00,VWS V14.00,2013-04-06 17:51:00,
2013-04-06 13:56:00,46.6,21.7,29.15,ESE,117,8.3,17.4,37,0.00,,,0.00,VWS V14.00,2013-04-06 17:56:00,
2013-04-06 14:01:00,46.9,22.0,29.15,SE,140,12.3,12.3,37,0.00,,,0.00,VWS V14.00,2013-04-06 18:01:00,
2013-04-06 14:06:00,47.3,22.4,29.15,SSE,165,7.2,14.5,37,0.00,,,0.00,VWS V14.00,2013-04-06 18:06:00,
2013-04-06 14:11:00,48.7,23.6,29.15,ESE,122,8.1,14.5,37,0.00,,,0.00,VWS V14.00,2013-04-06 18:11:00,
2013-04-06 14:16:00,48.9,23.8,29.12,SSE,150,7.6,14.5,37,0.00,,,0.00,VWS V14.00,2013-04-06 18:16:00,
2013-04-06 14:21:00,48.9,23.8,29.12,SSE,147,5.8,14.5,37,0.00,,,0.00,VWS V14.00,2013-04-06 18:21:00,
2013-04-06 14:25:00,48.9,23.8,29.12,SE,129,10.1,14.5,37,0.00,,,0.00,VWS V14.00,2013-04-06 18:25:00,
2013-04-06 14:31:00,48.6,22.8,29.12,SE,128,7.6,8.7,36,0.00,,,0.00,VWS V14.00,2013-04-06 18:31:00,
2013-04-06 14:36:00,49.1,23.3,29.12,SSE,154,8.7,11.0,36,0.00,,,0.00,VWS V14.00,2013-04-06 18:36:00,
2013-04-06 14:41:00,49.8,24.6,29.12,ESE,120,6.3,12.8,37,0.00,,,0.00,VWS V14.00,2013-04-06 18:41:00,
2013-04-06 14:46:00,50.4,24.4,29.12,ESE,122,5.4,12.8,36,0.00,,,0.00,VWS V14.00,2013-04-06 18:46:00,
2013-04-06 14:51:00,50.9,24.9,29.12,ESE,110,7.6,12.8,36,0.00,,,0.00,VWS V14.00,2013-04-06 18:51:00,
2013-04-06 14:56:00,50.9,24.9,29.12,SE,142,4.0,12.8,36,0.00,,,0.00,VWS V14.00,2013-04-06 18:56:00,
2013-04-06 15:01:00,51.6,25.6,29.12,South,171,6.7,9.6,36,0.00,,,0.00,VWS V14.00,2013-04-06 19:01:00,
2013-04-06 15:06:00,50.7,24.1,29.12,SSE,154,12.3,12.3,35,0.00,,,0.00,VWS V14.00,2013-04-06 19:06:00,
2013-04-06 15:11:00,51.1,25.1,29.12,SE,133,7.6,12.3,36,0.00,,,0.00,VWS V14.00,2013-04-06 19:11:00,
2013-04-06 15:16:00,50.9,24.2,29.09,ESE,119,10.5,14.5,35,0.00,,,0.00,VWS V14.00,2013-04-06 19:16:00,
2013-04-06 15:21:00,50.7,24.1,29.09,SE,132,6.3,14.5,35,0.00,,,0.00,VWS V14.00,2013-04-06 19:21:00,
2013-04-06 15:26:00,51.6,25.6,29.09,South,184,9.6,14.5,36,0.00,,,0.00,VWS V14.00,2013-04-06 19:26:00,
2013-04-06 15:31:00,51.8,25.0,29.09,ESE,116,8.7,8.7,35,0.00,,,0.00,VWS V14.00,2013-04-06 19:31:00,
2013-04-06 15:36:00,52.2,24.7,29.09,SSE,157,6.3,13.2,34,0.00,,,0.00,VWS V14.00,2013-04-06 19:36:00,
2013-04-06 15:41:00,51.4,24.0,29.09,East,96,8.1,13.2,34,0.00,,,0.00,VWS V14.00,2013-04-06 19:41:00,
2013-04-06 15:46:00,51.6,24.9,29.06,ESE,115,11.0,15.4,35,0.00,,,0.00,VWS V14.00,2013-04-06 19:46:00,
2013-04-06 15:51:00,52.0,25.2,29.06,SE,124,8.3,15.4,35,0.00,,,0.00,VWS V14.00,2013-04-06 19:51:00,
2013-04-06 15:56:00,51.6,24.9,29.06,SSE,151,7.6,15.4,35,0.00,,,0.00,VWS V14.00,2013-04-06 19:56:00,
2013-04-06 16:01:00,50.5,23.9,29.06,SE,135,7.6,13.2,35,0.00,,,0.00,VWS V14.00,2013-04-06 20:01:00,
2013-04-06 16:06:00,51.6,24.9,29.06,ESE,117,8.1,13.2,35,0.00,,,0.00,VWS V14.00,2013-04-06 20:06:00,
2013-04-06 16:11:00,51.8,25.0,29.06,South,172,8.3,13.2,35,0.00,,,0.00,VWS V14.00,2013-04-06 20:11:00,
2013-04-06 16:17:00,51.6,24.9,29.03,SSE,167,5.4,15.0,35,0.00,,,0.00,VWS V14.00,2013-04-06 20:17:00,
2013-04-06 16:22:00,51.8,24.3,29.03,SSE,164,7.2,15.0,34,0.00,,,0.00,VWS V14.00,2013-04-06 20:22:00,
2013-04-06 16:27:00,51.8,25.0,29.03,South,172,5.8,15.0,35,0.00,,,0.00,VWS V14.00,2013-04-06 20:27:00,
2013-04-06 16:32:00,51.6,24.9,29.03,SSE,167,4.9,7.6,35,0.00,,,0.00,VWS V14.00,2013-04-06 20:32:00,
2013-04-06 16:37:00,51.1,24.4,29.03,East,93,8.1,12.3,35,0.00,,,0.00,VWS V14.00,2013-04-06 20:37:00,
2013-04-06 16:42:00,51.3,25.2,29.00,SSE,151,7.6,12.3,36,0.00,,,0.00,VWS V14.00,2013-04-06 20:42:00,
2013-04-06 16:47:00,51.1,25.1,29.00,ESE,120,8.3,12.3,36,0.00,,,0.00,VWS V14.00,2013-04-06 20:47:00,
2013-04-06 16:52:00,50.9,24.9,29.00,SE,144,10.1,12.3,36,0.00,,,0.00,VWS V14.00,2013-04-06 20:52:00,
2013-04-06 16:57:00,51.1,25.1,29.00,SSE,166,3.6,12.8,36,0.00,,,0.00,VWS V14.00,2013-04-06 20:57:00,
2013-04-06 17:02:00,51.4,25.4,29.00,SSE,149,8.1,8.1,36,0.00,,,0.00,VWS V14.00,2013-04-06 21:02:00,
2013-04-06 17:07:00,51.3,25.2,29.00,SE,129,8.1,10.1,36,0.00,,,0.00,VWS V14.00,2013-04-06 21:07:00,
2013-04-06 17:12:00,50.9,24.9,29.00,SE,140,8.1,11.9,36,0.00,,,0.00,VWS V14.00,2013-04-06 21:12:00,
2013-04-06 17:17:00,50.4,24.4,29.00,SSE,157,13.2,13.2,36,0.00,,,0.00,VWS V14.00,2013-04-06 21:17:00,
2013-04-06 17:22:00,50.2,24.3,29.00,SE,126,10.1,13.2,36,0.00,,,0.00,VWS V14.00,2013-04-06 21:22:00,
2013-04-06 17:27:00,50.0,24.1,29.00,South,186,10.5,13.2,36,0.00,,,0.00,VWS V14.00,2013-04-06 21:27:00,
2013-04-06 17:32:00,49.8,24.0,29.00,SSE,152,6.7,15.4,36,0.00,,,0.00,VWS V14.00,2013-04-06 21:32:00,
2013-04-06 17:37:00,49.6,23.8,29.00,SE,144,3.6,15.4,36,0.00,,,0.00,VWS V14.00,2013-04-06 21:37:00,
2013-04-06 17:42:00,49.5,23.6,28.97,SE,142,4.0,15.4,36,0.00,,,0.00,VWS V14.00,2013-04-06 21:42:00,
2013-04-06 17:47:00,49.3,24.1,28.97,SSE,156,6.3,15.4,37,0.00,,,0.00,VWS V14.00,2013-04-06 21:47:00,
2013-04-06 17:52:00,49.1,23.3,28.97,SSE,150,4.5,15.4,36,0.00,,,0.00,VWS V14.00,2013-04-06 21:52:00,
2013-04-06 17:57:00,49.1,23.3,28.97,ESE,119,6.3,15.4,36,0.00,,,0.00,VWS V14.00,2013-04-06 21:57:00,
2013-04-06 18:02:00,48.9,23.8,28.97,SE,131,6.3,9.6,37,0.00,,,0.00,VWS V14.00,2013-04-06 22:02:00,
2013-04-06 18:07:00,48.7,23.6,28.97,ESE,108,8.3,12.8,37,0.00,,,0.00,VWS V14.00,2013-04-06 22:07:00,
2013-04-06 18:12:00,48.9,23.8,28.97,SE,128,8.1,12.8,37,0.00,,,0.00,VWS V14.00,2013-04-06 22:12:00,
2013-04-06 18:17:00,48.9,23.8,28.97,SE,143,7.6,12.8,37,0.00,,,0.00,VWS V14.00,2013-04-06 22:17:00,
2013-04-06 18:22:00,48.9,23.8,28.97,SE,128,6.7,12.8,37,0.00,,,0.00,VWS V14.00,2013-04-06 22:22:00,
2013-04-06 18:27:00,48.9,23.8,28.94,ESE,118,5.8,12.8,37,0.00,,,0.00,VWS V14.00,2013-04-06 22:27:00,
2013-04-06 18:32:00,48.6,23.5,28.94,SE,145,5.8,10.1,37,0.00,,,0.00,VWS V14.00,2013-04-06 22:32:00,
2013-04-06 18:37:00,48.4,23.3,28.94,SE,128,5.4,15.9,37,0.00,,,0.00,VWS V14.00,2013-04-06 22:37:00,
2013-04-06 18:42:00,48.2,23.2,28.94,SE,128,8.1,15.9,37,0.00,,,0.00,VWS V14.00,2013-04-06 22:42:00,
2013-04-06 18:47:00,47.8,22.9,28.94,SE,125,5.8,15.9,37,0.00,,,0.00,VWS V14.00,2013-04-06 22:47:00,
2013-04-06 18:52:00,47.5,23.2,28.94,SE,143,8.1,15.9,38,0.00,,,0.00,VWS V14.00,2013-04-06 22:52:00,
2013-04-06 18:57:00,47.3,23.0,28.94,SE,127,6.3,15.9,38,0.00,,,0.00,VWS V14.00,2013-04-06 22:57:00,
2013-04-06 19:02:00,47.1,22.8,28.94,ESE,112,12.3,12.3,38,0.00,,,0.00,VWS V14.00,2013-04-06 23:02:00,
2013-04-06 19:07:00,47.1,22.8,28.94,SSE,160,6.3,12.8,38,0.00,,,0.00,VWS V14.00,2013-04-06 23:07:00,
2013-04-06 19:13:00,46.9,22.7,28.94,SSE,154,8.7,12.8,38,0.00,,,0.00,VWS V14.00,2013-04-06 23:13:00,
2013-04-06 19:18:00,46.8,22.5,28.94,SSE,149,6.3,12.8,38,0.00,,,0.00,VWS V14.00,2013-04-06 23:18:00,
2013-04-06 19:23:00,46.6,23.0,28.94,SE,128,7.6,13.2,39,0.00,,,0.00,VWS V14.00,2013-04-06 23:23:00,
2013-04-06 19:28:00,46.4,22.8,28.94,ESE,116,8.1,15.0,39,0.00,,,0.00,VWS V14.00,2013-04-06 23:28:00,
2013-04-06 19:33:00,46.0,22.5,28.94,South,183,6.3,11.0,39,0.00,,,0.00,VWS V14.00,2013-04-06 23:33:00,
2013-04-06 19:38:00,45.9,22.9,28.94,ESE,112,6.3,11.0,40,0.00,,,0.00,VWS V14.00,2013-04-06 23:38:00,
2013-04-06 19:43:00,45.5,22.6,28.91,SSE,148,8.1,11.0,40,0.00,,,0.00,VWS V14.00,2013-04-06 23:43:00,
2013-04-06 19:48:00,45.3,22.4,28.91,ESE,113,5.8,11.0,40,0.00,,,0.00,VWS V14.00,2013-04-06 23:48:00,
2013-04-06 19:53:00,45.1,22.9,28.91,SSE,165,4.0,12.8,41,0.00,,,0.00,VWS V14.00,2013-04-06 23:53:00,
2013-04-06 19:58:00,45.1,22.9,28.91,South,191,8.7,12.8,41,0.00,,,0.00,VWS V14.00,2013-04-06 23:58:00,
2013-04-06 20:03:00,45.0,22.7,28.91,SSE,158,8.1,10.5,41,0.00,,,0.00,VWS V14.00,2013-04-07 00:03:00,
2013-04-06 20:08:00,44.8,23.1,28.91,SE,140,5.4,10.5,42,0.00,,,0.00,VWS V14.00,2013-04-07 00:08:00,
2013-04-06 20:13:00,44.8,23.1,28.91,SE,142,4.9,10.5,42,0.00,,,0.00,VWS V14.00,2013-04-07 00:13:00,
2013-04-06 20:18:00,44.6,22.9,28.91,SSE,167,4.0,10.5,42,0.00,,,0.00,VWS V14.00,2013-04-07 00:18:00,
2013-04-06 20:23:00,44.6,22.9,28.91,South,169,5.4,10.5,42,0.00,,,0.00,VWS V14.00,2013-04-07 00:23:00,
2013-04-06 20:29:00,44.6,23.5,28.91,SSE,154,3.6,10.5,43,0.00,,,0.00,VWS V14.00,2013-04-07 00:29:00,
2013-04-06 20:34:00,44.6,23.5,28.91,SSE,156,3.6,10.1,43,0.00,,,0.00,VWS V14.00,2013-04-07 00:34:00,
2013-04-06 20:39:00,44.4,23.9,28.91,SSE,154,4.0,10.1,44,0.00,,,0.00,VWS V14.00,2013-04-07 00:39:00,
2013-04-06 20:44:00,44.2,23.7,28.91,SSE,165,3.1,10.1,44,0.00,,,0.00,VWS V14.00,2013-04-07 00:44:00,
2013-04-06 20:49:00,44.2,23.7,28.91,South,178,5.8,10.1,44,0.00,,,0.00,VWS V14.00,2013-04-07 00:49:00,
2013-04-06 20:54:00,44.1,24.1,28.91,SSE,153,5.4,10.1,45,0.00,,,0.00,VWS V14.00,2013-04-07 00:54:00,
2013-04-06 20:59:00,44.1,24.1,28.91,ESE,122,4.0,10.1,45,0.00,,,0.00,VWS V14.00,2013-04-07 00:59:00,
2013-04-06 21:04:00,44.1,24.1,28.91,SE,134,3.1,8.7,45,0.00,,,0.00,VWS V14.00,2013-04-07 01:04:00,
2013-04-06 21:09:00,44.1,24.1,28.91,SSE,157,6.3,8.7,45,0.00,,,0.00,VWS V14.00,2013-04-07 01:09:00,
2013-04-06 21:14:00,44.1,24.1,28.91,SSE,154,5.4,8.7,45,0.00,,,0.00,VWS V14.00,2013-04-07 01:14:00,
2013-04-06 21:19:00,44.1,24.6,28.91,ESE,118,5.8,9.2,46,0.00,,,0.00,VWS V14.00,2013-04-07 01:19:00,
2013-04-06 21:24:00,44.1,24.6,28.91,SE,142,5.4,9.6,46,0.00,,,0.00,VWS V14.00,2013-04-07 01:24:00,
2013-04-06 21:29:00,44.1,24.6,28.88,South,190,8.1,10.1,46,0.00,,,0.00,VWS V14.00,2013-04-07 01:29:00,
2013-04-06 21:34:00,44.1,24.6,28.88,SSE,151,5.4,11.0,46,0.00,,,0.00,VWS V14.00,2013-04-07 01:34:00,
2013-04-06 21:39:00,44.1,24.6,28.88,SSE,151,8.1,11.0,46,0.00,,,0.00,VWS V14.00,2013-04-07 01:39:00,
2013-04-06 21:44:00,43.9,24.5,28.88,SSE,152,4.0,11.0,46,0.00,,,0.00,VWS V14.00,2013-04-07 01:44:00,
2013-04-06 21:49:00,43.9,24.5,28.88,ESE,123,5.4,11.0,46,0.00,,,0.00,VWS V14.00,2013-04-07 01:49:00,
2013-04-06 21:54:00,43.9,24.5,28.88,SE,131,3.6,11.0,46,0.00,,,0.00,VWS V14.00,2013-04-07 01:54:00,
2013-04-06 21:59:00,43.9,25.0,28.88,ESE,116,5.8,11.0,47,0.00,,,0.00,VWS V14.00,2013-04-07 01:59:00,
2013-04-06 22:04:00,43.7,24.8,28.88,SE,143,8.3,8.3,47,0.00,,,0.00,VWS V14.00,2013-04-07 02:04:00,
2013-04-06 22:09:00,43.9,25.0,28.88,SSE,163,6.3,8.7,47,0.00,,,0.00,VWS V14.00,2013-04-07 02:09:00,
2013-04-06 22:14:00,43.9,25.0,28.88,SSE,147,7.2,8.7,47,0.00,,,0.00,VWS V14.00,2013-04-07 02:14:00,
2013-04-06 22:20:00,43.7,24.8,28.88,SE,141,3.1,8.7,47,0.00,,,0.00,VWS V14.00,2013-04-07 02:20:00,
2013-04-06 22:25:00,43.7,25.3,28.88,SE,137,3.1,8.7,48,0.00,,,0.00,VWS V14.00,2013-04-07 02:25:00,
2013-04-06 22:30:00,43.7,25.3,28.88,SE,126,5.4,8.7,48,0.00,,,0.00,VWS V14.00,2013-04-07 02:30:00,
2013-04-06 22:35:00,43.9,25.5,28.88,SE,146,6.3,6.3,48,0.00,,,0.00,VWS V14.00,2013-04-07 02:35:00,
2013-04-06 22:40:00,43.9,25.5,28.88,SSE,149,5.4,6.7,48,0.00,,,0.00,VWS V14.00,2013-04-07 02:40:00,
2013-04-06 22:45:00,44.1,25.6,28.85,SE,141,3.6,6.7,48,0.00,,,0.00,VWS V14.00,2013-04-07 02:45:00,
2013-04-06 22:50:00,44.1,25.6,28.85,SE,144,3.1,6.7,48,0.00,,,0.00,VWS V14.00,2013-04-07 02:50:00,
2013-04-06 22:55:00,44.1,25.1,28.85,SE,136,3.1,6.7,47,0.00,,,0.00,VWS V14.00,2013-04-07 02:55:00,
2013-04-06 23:00:00,44.2,25.3,28.85,SSE,151,4.0,8.3,47,0.00,,,0.00,VWS V14.00,2013-04-07 03:00:00,
2013-04-06 23:05:00,44.2,25.3,28.85,SE,139,4.9,8.3,47,0.00,,,0.00,VWS V14.00,2013-04-07 03:05:00,
2013-04-06 23:10:00,44.6,25.1,28.85,South,181,6.3,8.3,46,0.00,,,0.00,VWS V14.00,2013-04-07 03:10:00,
2013-04-06 23:15:00,44.6,25.1,28.85,SSE,152,3.6,8.3,46,0.00,,,0.00,VWS V14.00,2013-04-07 03:15:00,
2013-04-06 23:20:00,44.8,24.8,28.85,SE,146,4.0,8.3,45,0.00,,,0.00,VWS V14.00,2013-04-07 03:20:00,
2013-04-06 23:25:00,45.0,24.9,28.85,SE,127,6.3,8.3,45,0.00,,,0.00,VWS V14.00,2013-04-07 03:25:00,
2013-04-06 23:30:00,45.3,24.7,28.82,SE,145,5.4,10.5,44,0.00,,,0.00,VWS V14.00,2013-04-07 03:30:00,
2013-04-06 23:35:00,45.7,25.0,28.82,SSE,153,6.3,10.5,44,0.00,,,0.00,VWS V14.00,2013-04-07 03:35:00,
2013-04-06 23:40:00,46.0,24.8,28.82,SSE,149,5.8,10.5,43,0.00,,,0.00,VWS V14.00,2013-04-07 03:40:00,
2013-04-06 23:45:00,46.4,24.6,28.82,South,172,10.5,10.5,42,0.00,,,0.00,VWS V14.00,2013-04-07 03:45:00,
2013-04-06 23:50:00,46.8,24.3,28.82,SSE,150,4.0,10.5,41,0.00,,,0.00,VWS V14.00,2013-04-07 03:50:00,
2013-04-06 23:55:00,46.8,24.3,28.82,SSE,148,3.1,10.5,41,0.00,,,0.00,VWS V14.00,2013-04-07 03:55:00,